[[[{"header":{"parameterUnit":"kt","parameterCategory":2,"dx":1,"dy":1,"la1":30.253999710083008,"la2":30.299108505249023,"lo1":-89.0895004272461,"lo2":-89.04439544677734,"nx":28,"ny":28,"refTime":"2022-09-23T21:00:00:Z","depth":0,"parameterNumber":1,"parameterNumberName":"U-component_of_WINDS"},"data":[-3.6613,-3.6752,-3.677,-3.6937,-3.6982,-3.71,-3.7148,-3.7212,-3.7268,-3.7411,-3.7497,-3.7531,-3.7595,-3.7703,-3.7798,-3.7811,-3.785,-3.7885,-3.7895,-3.7719,-3.7696,-3.7674,-3.7643,-3.7893,-3.7894,-3.8076,-3.8077,-3.8078,-3.648,-3.6525,-3.6618,-3.6722,-3.6803,-3.6779,-3.686,-3.6929,-3.7036,-3.7106,-3.7192,-3.732,-3.7425,-3.7478,-3.7582,-3.7649,-3.7645,-3.7676,-3.7672,-3.7683,-3.7495,-3.7461,-3.7677,-3.7677,-3.7677,-3.7677,-3.7677,-3.7677,-3.6242,-3.6325,-3.6398,-3.6501,-3.6558,-3.6627,-3.671,-3.6749,-3.6842,-3.6952,-3.6956,-3.7078,-3.7153,-3.7288,-3.7339,-3.7435,-3.7404,-3.7445,-3.7455,-3.7466,-3.7475,-3.721,-3.7453,-3.7452,-3.7452,-3.7452,-3.7451,0,-3.6075,-3.6084,-3.6176,-3.6273,-3.6349,-3.6426,-3.6501,-3.6553,-3.6581,-3.6657,-3.6769,-3.6837,-3.6971,-3.7079,-3.7181,-3.7226,-3.7213,-3.7213,-3.7241,-3.7242,-3.7228,-3.7238,-3.6932,-3.7207,-3.7205,-3.7203,-3.7202,-3.7201,-3.5838,-3.5932,-3.6018,-3.608,-3.6126,-3.6226,-3.629,-3.6308,-3.6375,-3.647,-3.6543,-3.6651,-3.6739,-3.6916,-3.6963,-3.7065,-3.706,-3.7162,-3.7075,-3.707,-3.7063,-3.7058,-3.7068,-3.718,-3.7182,-3.7185,-3.7186,0,-3.5703,-3.5733,-3.5886,-3.5962,-3.5984,-3.6083,-3.6149,-3.6234,-3.6263,-3.6384,-3.6413,-3.646,-3.657,-3.6601,-3.6734,-3.6747,-3.6911,-3.6903,-3.6885,-3.6885,-3.6981,-3.6973,-3.7286,-3.7329,-3.7067,-3.7069,-3.7071,0,-3.5514,-3.5638,-3.5675,-3.5763,-3.5901,-3.5916,-3.6053,-3.6092,-3.6157,-3.6252,-3.624,-3.633,-3.6355,-3.6449,-3.6469,-3.6608,-3.6633,-3.6652,-3.6656,-3.6654,-3.6652,-3.6692,-3.6681,-3.6659,-3.6658,-3.6656,-3.6655,0,-3.5301,-3.5467,-3.5608,-3.5651,-3.5747,-3.5813,-3.5856,-3.5929,-3.5993,-3.6079,-3.612,-3.6221,-3.6276,-3.6354,-3.6378,-3.6318,-3.6549,-3.6471,-3.6569,-3.6568,-3.662,-3.6617,-3.6885,-3.6653,-3.6653,-3.6652,-3.6652,0,-3.5154,-3.524,-3.5441,-3.552,-3.5563,-3.5657,-3.5756,-3.5843,-3.5922,-3.5939,-3.6008,-3.6005,-3.6129,-3.6049,-3.6221,-3.6135,-3.6191,-3.622,-3.6227,-3.6242,-3.6153,-3.6302,-3.6552,-3.658,-3.6253,-3.625,-3.6247,0,-3.4902,-3.5113,-3.5128,-3.5319,-3.5421,-3.54,-3.5505,-3.5575,-3.5607,-3.5699,-3.5735,-3.584,-3.5787,-3.5825,-3.5905,-3.5948,-3.6059,-3.5934,-3.6068,-3.6073,-3.6049,-3.6279,-3.631,-3.6493,-3.6204,-3.6209,-3.6212,0,-3.4711,-3.4826,-3.4859,-3.4909,-3.5004,-3.5089,-3.5209,-3.5317,-3.5377,-3.5457,-3.5559,-3.5707,-3.5674,-3.5736,-3.5745,-3.5827,-3.5984,-3.578,-3.5783,-3.5817,-3.6186,-3.6214,-3.6245,-3.5972,-3.5977,-3.5981,-3.6179,0,-3.4484,-3.4594,-3.4684,-3.4795,-3.4866,-3.4988,-3.502,-3.509,-3.509,-3.5122,-3.5273,-3.534,-3.5451,-3.5494,-3.5496,-3.5674,-3.565,-3.5613,-3.554,-3.569,-3.5756,-3.5783,-3.5438,-3.5436,-3.5435,-3.5433,0,0,-3.4236,-3.4394,-3.4408,-3.4525,-3.4586,-3.4564,-3.4691,-3.4748,-3.4864,-3.4907,-3.4865,-3.5085,-3.5142,-3.5322,-3.5371,-3.5416,-3.5452,-3.5398,-3.5618,-3.5639,-3.5658,-3.5728,-3.5755,-3.5431,-3.543,-3.5429,-3.5429,0,-3.416,-3.4216,-3.4341,-3.44,-3.4488,-3.4516,-3.4546,-3.463,-3.4657,-3.4804,-3.4786,-3.488,-3.5056,-3.5119,-3.5174,-3.5377,-3.5359,-3.5408,-3.5506,-3.56,-3.5623,-3.5643,-3.5716,-3.5742,-3.5425,-3.5425,-3.5425,0,-3.3979,-3.404,-3.4104,-3.4241,-3.4299,-3.4405,-3.4335,-3.445,-3.4529,-3.4502,-3.4649,-3.4691,-3.4778,-3.4944,-3.5019,-3.4984,-3.5272,-3.5187,-3.5199,-3.5208,-3.5301,-3.5329,-3.5353,-3.5034,-3.5033,-3.5032,0,0,-3.3909,-3.4011,-3.4084,-3.4227,-3.4264,-3.4308,-3.4368,-3.4375,-3.4452,-3.4484,-3.4538,-3.4615,-3.4717,-3.4785,-3.4882,-3.5059,-3.508,-3.5138,-3.5156,-3.5171,-3.5189,-3.5286,-3.5313,-3.5026,-3.5026,-3.5026,0,0,-3.3876,-3.3965,-3.3952,-3.4122,-3.4195,-3.4277,-3.4364,-3.435,-3.4441,-3.4431,-3.445,-3.4471,-3.4626,-3.4669,-3.4589,-3.4857,-3.4784,-3.4804,-3.4824,-3.4848,-3.4866,-3.4853,-3.4529,0,0,0,0,0,-3.3816,-3.3954,-3.394,-3.3974,-3.4148,-3.4284,-3.4307,-3.4324,-3.4271,-3.434,-3.4382,-3.4359,-3.463,-3.4559,-3.4593,-3.4683,-3.4953,-3.4966,-3.4978,-3.5046,-3.507,-3.5091,0,0,0,0,0,0,-3.3829,-3.387,-3.3937,-3.4024,-3.4063,-3.4279,-3.4194,-3.4202,-3.4265,-3.4258,-3.4351,-3.4362,-3.438,-3.4543,-3.4573,-3.4658,-3.4519,-3.4958,-3.4969,-3.4979,-3.5054,-3.5074,-3.5091,0,0,0,0,0,-3.384,-3.3872,-3.4147,-3.4022,-3.4056,-3.4113,-3.4189,-3.4195,-3.4244,-3.4311,-3.4321,-3.4252,-3.4382,-3.4409,-3.4561,-3.4644,-3.4498,-3.4509,-3.4965,-3.4974,-3.4981,-3.5064,0,0,0,0,0,0,-3.3848,-3.388,-3.4154,-3.4166,-3.3971,-3.4101,-3.4122,-3.4189,-3.4294,-3.4305,-3.4212,-3.4205,-3.4385,-3.4405,-3.4426,-3.4638,-3.4481,-3.4493,-3.45,-3.4972,-3.4978,-3.4984,0,0,0,0,0,0,-3.3862,-3.389,-3.416,-3.4095,-3.4099,-3.409,-3.4109,-3.4241,-3.4295,-3.4188,-3.4186,-3.4208,-3.4355,-3.4404,-3.4419,-3.4625,-3.4468,-3.4479,-3.4487,-3.4491,-3.4977,-3.4982,0,0,0,0,0,0,-3.3874,-3.3897,-3.4092,-3.4095,-3.4098,-3.4224,-3.4207,-3.4386,-3.4238,-3.4184,-3.4225,-3.4219,-3.4354,-3.437,-3.4415,-3.4615,-3.4623,-3.4469,-3.4476,-3.4481,-3.4485,0,0,0,0,0,0,0,-3.3884,-3.3723,-3.4088,-3.4095,-3.4098,-3.4268,-3.4271,-3.4274,-3.4237,-3.4232,-3.4227,-3.4222,-3.4407,-3.4419,-3.4431,-3.4606,0,0,-3.4468,-3.4473,0,0,0,0,0,0,0,0,-3.3714,-3.3721,-3.4089,-3.4091,-3.4093,-3.4269,-3.4271,-3.4274,-3.4236,-3.4232,-3.4228,-3.4224,-3.441,-3.442,-3.4429,0,0,0,0,0,0,0,0,0,0,0,0,0,0,0,-3.4089,-3.4091,0,-3.4269,-3.4271,-3.4273,-3.4235,-3.4232,-3.4229,-3.4225,-3.4413,-3.442,-3.4428,0,0,0,0,0,0,0,0,0,0,0,0,0,0,0,0,0,0,0,0,0,0,0,0,0,0,0,0,0,0,0,0,0,0,0,0,0,0,0,0,0,0,0,0,0,0,0,0,0,0,0,0,0,0,0,0,0,0,0,0,0,0,0,0,0,0,0,0,0]}],[{"header":{"parameterUnit":"kt","parameterCategory":2,"dx":1,"dy":1,"la1":30.253999710083008,"la2":30.299108505249023,"lo1":-89.0895004272461,"lo2":-89.04439544677734,"nx":28,"ny":28,"refTime":"2022-09-23T21:00:00:Z","depth":0,"parameterNumber":2,"parameterNumberName":"V-component_of_WINDS"},"data":[2.0517,2.0579,2.0599,2.0678,2.0709,2.0766,2.0793,2.0829,2.0862,2.0931,2.0974,2.0999,2.1038,2.1093,2.114,2.1149,2.1167,2.1176,2.1185,2.1131,2.1124,2.1118,2.1104,2.118,2.118,2.1237,2.1237,2.1238,2.0476,2.0507,2.0556,2.0615,2.0656,2.066,2.0707,2.074,2.0791,2.0832,2.0876,2.0938,2.0989,2.1026,2.1077,2.1105,2.1109,2.1118,2.1115,2.112,2.1064,2.1049,2.1114,2.1114,2.1114,2.1114,2.1114,2.1114,2.0407,2.0444,2.0491,2.0543,2.0578,2.0618,2.0655,2.0685,2.0732,2.0789,2.0802,2.0859,2.0903,2.0973,2.1001,2.1045,2.1038,2.1053,2.1056,2.1059,2.106,2.0972,2.1055,2.1055,2.1055,2.1055,2.1055,0,2.0361,2.0375,2.0422,2.0475,2.0514,2.0557,2.0599,2.0623,2.0656,2.0693,2.0747,2.0781,2.0848,2.09,2.0953,2.0978,2.0982,2.0986,2.0996,2.0989,2.0976,2.0982,2.0887,2.0982,2.0982,2.0981,2.0981,2.0981,2.0291,2.0332,2.039,2.0421,2.0449,2.0498,2.053,2.0557,2.059,2.0645,2.0675,2.0728,2.0772,2.0854,2.0886,2.0935,2.0937,2.0972,2.0944,2.0937,2.0935,2.0932,2.0935,2.0975,2.0976,2.0976,2.0977,0,2.0249,2.028,2.0349,2.0403,2.0417,2.0459,2.0503,2.0541,2.0565,2.0619,2.0634,2.0671,2.0723,2.075,2.0814,2.0826,2.0892,2.0894,2.0877,2.0878,2.0909,2.0905,2.1012,2.1026,2.0951,2.0951,2.0952,0,2.02,2.0253,2.0295,2.0334,2.0393,2.0418,2.0476,2.0502,2.0541,2.0584,2.0595,2.0634,2.0662,2.0706,2.0724,2.0782,2.0795,2.0807,2.081,2.0804,2.0803,2.0819,2.0814,2.0819,2.0819,2.0818,2.0818,0,2.0129,2.0214,2.0278,2.0302,2.0363,2.0392,2.0418,2.0461,2.0493,2.0537,2.0558,2.0608,2.0635,2.0673,2.0695,2.0676,2.0768,2.0746,2.078,2.0779,2.0796,2.0794,2.0885,2.0817,2.0817,2.0817,2.0817,0,2.0093,2.0139,2.0227,2.0278,2.0299,2.0341,2.0392,2.0434,2.0479,2.0493,2.0528,2.0537,2.0592,2.0568,2.0643,2.0611,2.0637,2.0654,2.0656,2.066,2.0632,2.0676,2.0762,2.077,2.0668,2.0666,2.0665,0,2.0003,2.01,2.0122,2.0204,2.0252,2.0261,2.0308,2.0347,2.0369,2.0412,2.0437,2.0486,2.0473,2.0492,2.0526,2.0552,2.0594,2.0548,2.0606,2.0608,2.0592,2.0672,2.0677,2.0741,2.065,2.0651,2.0653,0,1.9936,2.001,2.0024,2.0051,2.0108,2.0148,2.0202,2.0256,2.0284,2.0327,2.0371,2.0441,2.0433,2.0464,2.0476,2.051,2.0567,2.0497,2.0499,2.0507,2.0645,2.0649,2.066,2.0567,2.0569,2.0571,2.064,0,1.9871,1.9923,1.9961,2.0022,2.0058,2.0111,2.014,2.0173,2.0182,2.0204,2.0271,2.0308,2.0362,2.0381,2.0389,2.046,2.0451,2.0443,2.0418,2.0472,2.0495,2.0505,2.0382,2.0381,2.0381,2.038,0,0,1.9776,1.9851,1.9873,1.9927,1.9957,1.9965,2.0019,2.005,2.0111,2.0131,2.0119,2.0222,2.0252,2.0329,2.0348,2.037,2.0384,2.0364,2.0447,2.0454,2.0461,2.0485,2.0495,2.0379,2.0379,2.0379,2.0379,0,1.9757,1.9792,1.9846,1.9879,1.9929,1.995,1.9964,2.0013,2.003,2.0096,2.0098,2.0141,2.0222,2.0254,2.0281,2.0357,2.0355,2.0372,2.0403,2.0441,2.0449,2.0456,2.0482,2.0491,2.0378,2.0378,2.0378,0,1.9695,1.9733,1.9762,1.9834,1.9866,1.9916,1.9899,1.9951,1.9987,1.9989,2.0054,2.0078,2.0123,2.0193,2.0225,2.0214,2.0327,2.0296,2.03,2.0303,2.0341,2.0351,2.0359,2.0247,2.0246,2.0246,0,0,1.9675,1.9724,1.9771,1.9832,1.9853,1.9885,1.9913,1.9925,1.9966,1.9982,2.0013,2.0052,2.0099,2.0129,2.0175,2.0248,2.0258,2.0279,2.0285,2.029,2.0296,2.0335,2.0345,2.0244,2.0244,2.0244,0,0,1.9665,1.9722,1.9724,1.9798,1.9838,1.9887,1.9923,1.9925,1.9969,1.9966,1.9986,1.9997,2.0062,2.0086,2.0054,2.0166,2.0142,2.015,2.0148,2.0156,2.0162,2.0154,2.0039,0,0,0,0,0,1.966,1.9716,1.9716,1.9733,1.9823,1.9888,1.9899,1.9917,1.99,1.9928,1.9954,1.995,2.0073,2.0045,2.0061,2.0095,2.0216,2.0221,2.0226,2.0241,2.0249,2.0256,0,0,0,0,0,0,1.9667,1.9687,1.9715,1.9766,1.9787,1.9886,1.986,1.9867,1.9897,1.9896,1.9946,1.9952,1.9967,2.0039,2.0052,2.0084,2.0035,2.0218,2.0222,2.0226,2.0243,2.025,2.0256,0,0,0,0,0,1.9672,1.9688,1.9828,1.9766,1.9783,1.9821,1.9858,1.9864,1.9887,1.9928,1.9934,1.9898,1.9968,1.9981,2.0047,2.0077,2.0025,2.003,2.0221,2.0224,2.0227,2.0247,0,0,0,0,0,0,1.9676,1.9693,1.9832,1.9838,1.9746,1.9816,1.9828,1.9861,1.9917,1.9924,1.9881,1.9879,1.9969,1.9979,1.9988,2.0074,2.0018,2.0023,2.0026,2.0223,2.0226,2.0228,0,0,0,0,0,0,1.9684,1.9698,1.9835,1.9809,1.9812,1.9811,1.9821,1.988,1.9918,1.9867,1.9868,1.988,1.9954,1.9978,1.9985,2.0076,2.0012,2.0017,2.002,2.0022,2.0226,2.0228,0,0,0,0,0,0,1.969,1.9702,1.9807,1.981,1.9813,1.9881,1.9863,1.9953,1.9897,1.9865,1.9893,1.989,1.9953,1.9961,1.9983,2.007,2.0074,2.0012,2.0015,2.0018,2.0019,0,0,0,0,0,0,0,1.9695,1.9612,1.9796,1.9811,1.9813,1.9893,1.9895,1.9896,1.9897,1.9895,1.9893,1.9891,1.9984,1.999,1.9995,2.0066,0,0,2.0012,2.0014,0,0,0,0,0,0,0,0,1.9608,1.9611,1.9796,1.9798,1.9799,1.9893,1.9895,1.9896,1.9896,1.9895,1.9893,1.9892,1.9986,1.999,1.9994,0,0,0,0,0,0,0,0,0,0,0,0,0,0,0,1.9797,1.9798,0,1.9894,1.9895,1.9896,1.9896,1.9895,1.9894,1.9893,1.9987,1.999,1.9994,0,0,0,0,0,0,0,0,0,0,0,0,0,0,0,0,0,0,0,0,0,0,0,0,0,0,0,0,0,0,0,0,0,0,0,0,0,0,0,0,0,0,0,0,0,0,0,0,0,0,0,0,0,0,0,0,0,0,0,0,0,0,0,0,0,0,0,0,0]}]]]